星链-5976 (STARLINK-5976 )

导读 | 星芒AI

STARLINK-5976 是由 SpaceX 开发的星链(Starlink)卫星网络中的一颗低轨通信卫星,属于该星座的众多卫星之一。该卫星旨在为全球用户提供高速互联网服务,尤其关注网络覆盖不足的地区。它运行在约 550 公里的轨道高度,采用先进的通信技术,支持宽带数据传输。STARLINK-5976 于 2023 年发射,是 SpaceX 扩展其全球卫星互联网服务计划的一部分。

基本信息
目录编号:
56343
目录名称:
STARLINK-5976
国际标识:
2023-058AC
轨道中心:
EARTH
卫星名称:
星链-5976
卫星全名:
星链-5976 (STARLINK-5976 )
卫星状态:
在轨 (已飞行969 天)
发射日期:
2023-04-27 UTC
国别 :
美国 (US)
星等 :
--
轨道信息
数据来源 国际轨道数据 AOE轨道数据
星历时间 2025-12-21T19:05:01+0800
6小时前
查看轨道信息
2025-12-20T07:00:00+0800
1天前
查看轨道信息
半长轴 6927.658km 6927.594km
偏心率 0.0001932 0.0001784
轨道倾角 97.603° 97.603°
近地点辐角 84.767° 89.432°
升交点赤经 354.074° 352.594°
平近点角 275.378° 46.446°
近地点 548.182km 548.221km
远地点 550.86km 550.693km
周期 95.640分钟 95.639分钟
每日圈数 15.056468 15.056677
详细信息
固有亮度:
5
最大亮度:
2.5
卫星平台:
Starlink v1.5
覆盖范围:
全球
运营商:
太空探索技术公司
运营商所在国:
美国
制造商(研发单位):
太空探索技术公司
制造商所在国:
美国
使用方式:
暂无
卫星简介
星链(Starlink)计划是由太空探索技术公司(SpaceX)提出的一个巨型低轨卫星互联网星座项目,计划在2019年至2024年间在太空搭建由约1.2万颗卫星组成的“星链”网络,其中1584颗将部署在地球上空550千米处的近地轨道,并从2020年开始工作。该卫星仍在工作。
2D轨道图
3D轨道图
轨道高度分析图
轨道倾角分析图
轨道综合分析图
查看轨道综合分析图